Tracking 19817 objects as of 20-Aug-2019
HD Live streaming from Space Station
objects crossing your sky now

COSMOS 2251 DEB

Track COSMOS 2251 DEB now!
10-day predictions


NORAD ID: 35771
Int'l Code: 1993-036ARR
Perigee: 746.4 km
Apogee: 1,211.6 km
Inclination: 74.2 °
Period: 104.5 minutes
Semi major axis: 7349 km
RCS: 0.0095 m2 (small)
Launch date: June 16, 1993
Source: Commonwealth of Independent States (former USSR) (CIS)
Launch site: PLESETSK MISSILE AND SPACE COMPLEX (PKMTR)

Note: This is SATELLITE DEBRIS
aabbcc
Your satellite tracking list
Your tracking list is empty




NASA's NSSDC Master Catalog

Two Line Element Set (TLE):
1 35771U 93036ARR 19230.40629541 +.00000804 +00000-0 +56868-3 0  9998
2 35771 074.1822 234.6837 0316489 049.7692 313.0661 13.77759936516278
Source of the keplerian elements: AFSPC